Regional Weather Roundup
Issued by NWS

Home | Current Version | Previous Version | Graphics & Text | Print | Product List | Glossary On
Versions: 1 2 3 4 5 6 7 8 9 10 11 12 13 14 15 16 17 18 19 20 21 22 23 24 25 26 27 28 29 30 31 32 33 34 35 36 37 38 39 40 41 42 43 44 45 46 47 48 49 50
000
ASUS45 KBOU 300110
RWRCO

WEATHER ROUNDUP FOR COLORADO
NATIONAL WEATHER SERVICE DENVER/BOULDER CO
700 PM MDT MON JUN 29 2015

NOTE: "FAIR" INDICATES FEW OR NO CLOUDS BELOW 12000 FEET WITH NO
SIGNIFICANT WEATHER AND/OR OBSTRUCTIONS TO VISIBILITY.

COZ001>005-013-030-031-300200-
...NORTHWEST COLORADO...

CITY           SKY/WX    TMP DP  RH WIND       PRES   REMARKS
CRAIG          SUNNY     89  39  17 N7        30.19F
HAYDEN         SUNNY     88  34  14 N5        30.22F
MEEKER         SUNNY     90  39  16 NE5       30.20F
MOUNT WERNER   NOT AVBL
STEAMBOAT SPGS SUNNY     85  41  21 W5        30.24S
WALDEN         SUNNY     73  37  27 NE13G20   30.39S
$$

COZ006>008-011-300200-
...WEST CENTRAL VALLEYS...

CITY           SKY/WX    TMP DP  RH WIND       PRES   REMARKS
GRAND JUNCTION SUNNY     97  44  16 W12       30.01F
MONTROSE       MOSUNNY   95  41  15 NW8       30.11F
EAGLE          MOSUNNY   88  41  19 E14G20    30.22S
RIFLE          SUNNY     94  39  14 N10       30.10F
DELTA          MOSUNNY   99  38  12 N12       30.05S
NUCLA          MOSUNNY   93  36  13 NW3       30.16S
$$

COZ017>023-064>068-300200-
...SOUTHWEST COLORADO...

CITY           SKY/WX    TMP DP  RH WIND       PRES   REMARKS
DURANGO        CLOUDY    78  52  40 NE18G32   30.24R THUNDER
CORTEZ         SUNNY     91  44  19 NE6       30.12S
PAGOSA SPRINGS CLOUDY    71  50  48 NW12      30.34R THUNDER
TELLURIDE      MOSUNNY   76  36  23 N3        30.45R THUNDER
WOLF CREEK PAS NOT AVBL
$$

COZ009-010-012-014-032>034-037-058>063-300200-
...CENTRAL COLORADO...

CITY           SKY/WX    TMP DP  RH WIND       PRES   REMARKS
ASPEN          PTSUNNY   80  46  30 CALM      30.30F
BUENA VISTA    PTSUNNY   72  48  42 S7        30.39F
COPPER MTN     PTSUNNY   64  37  36 N7        30.72R
BERTHOUD PASS  FAIR      46  37  71 E18G26    30.78R
COTTONWOOD PAS NOT AVBL
GUNNISON       CLOUDY    77  43  29 NE9       30.33R
KREMMLING      MOSUNNY   82  34  17 NW12      30.31S
LEADVILLE      PTSUNNY   65  42  43 S15       30.51S
MONARCH PASS   CLOUDY    52  43  71 NE25      30.78F
SALIDA         PTSUNNY   71  60  70 W3        30.43S
SUNLIGHT       MOSUNNY   70  37  30 CALM      30.62S
WILKERSON PASS PTSUNNY   55  37  50 NE8G16    30.69S
$$

COZ069>075-300200-
...SAN LUIS VALLEY/SANGRE DE CRISTO MOUNTAINS...

CITY           SKY/WX    TMP DP  RH WIND       PRES   REMARKS
ALAMOSA        MOSUNNY   74  47  38 E13       30.31R
LA VETA PASS   PTSUNNY   61  45  55 MISG      30.56S
SAGUACHE       CLOUDY    68  52  56 NW9       30.36S
$$

COZ035-036-038>040-300200-
...NORTHERN COLORADO FRONT RANGE...

CITY           SKY/WX    TMP DP  RH WIND       PRES   REMARKS
DENVER INTL AP MOSUNNY   84  49  29 N7        30.20S
DMNS CITY PARK   N/A     86  45  24 N5        30.20S
AURORA         MOSUNNY   82  51  33 N8        30.23S
FRONT RANGE AP MOSUNNY   84  48  28 N5        30.21F
ERIE MUNI ARPT SUNNY     85  44  23 NE6       30.19S
BOULDER MUN AP SUNNY     84  46  26 CALM      30.20S
CENTENNIAL     MOSUNNY   82  47  29 N7        30.24S
BROOMFIELD     MOSUNNY   84  48  28 CALM      30.23F
FORT COLLINS   SUNNY     84  52  32 CALM      30.16F
LONGMONT       SUNNY     88  50  27 CALM      30.20S
$$

COZ041-046-047-076>085-087-088-300200-
...PIKES PEAK/PALMER DIVIDE AND SOUTHERN FOOTHILLS...

CITY           SKY/WX    TMP DP  RH WIND       PRES   REMARKS
COLO. SPRINGS  MOSUNNY   76  54  46 S6        30.28S
A. F. ACADEMY  NOT AVBL
ELLICOTT       MOSUNNY  N/A N/A N/A S6        30.26F
FALCON         MOSUNNY   77  46  33 N5        30.33S
FORT CARSON    PTSUNNY   80  55  41 S3        30.24F
LIMON          PTSUNNY   72  59  63 SE5       30.22R
MONUMENT HILL  MOSUNNY   73  50  43 NE3       30.34F
TRINIDAD       MOSUNNY   82  51  34 SE7       30.22S
$$

COZ042>045-048>051-090-091-300200-
...NORTHEAST COLORADO...

CITY           SKY/WX    TMP DP  RH WIND       PRES   REMARKS
GREELEY ARPT   SUNNY     86  52  30 NW3       30.16S
AKRON          MOSUNNY   79  56  45 N7        30.15F
BURLINGTON     SUNNY     80  54  40 S15       30.13S
WRAY           SUNNY     90  49  24 N3        30.08S
STERLING       MOSUNNY   84  55  37 W3        30.10S
HOLYOKE        SUNNY     91  50  24 CALM      30.08F
FORT MORGAN    MOSUNNY   85 -22   1 E3        30.15S
$$

COZ086-089-092>099-300200-
...SOUTHEAST COLORADO...

CITY           SKY/WX    TMP DP  RH WIND       PRES   REMARKS
PUEBLO         MOSUNNY   88  48  25 S8        30.14F
LA JUNTA       PTSUNNY   85  53  33 NE7       30.12S
LAMAR          MOSUNNY   88  52  29 E3        30.07F
SPRINGFIELD      N/A     83  44  25 E3        30.14S
$$


USA.gov is the U.S. government's official web portal to all federal, state and local government web resources and services.